AD8BW Weather Reports


time (UTC)temp
C
wind
direction
speed
KPH
gust
KPH
rain 1hr
cm
rain 24hr
cm
rain mn
cm
humidity
%
barometer
mb
20260906102927 15 344 0.0 0.0 0.00 0.03 0.00 94 1018.1
20260906101928 15 23 0.0 0.0 0.00 0.03 0.00 94 1018.0
20260906100927 15 23 0.0 0.0 0.00 0.03 0.00 94 1017.9
20260906095930 15 23 0.0 0.0 0.00 0.03 0.00 94 1018.0
20260906094932 15 323 0.0 6.4 0.00 0.03 0.00 94 1017.9
20260906093929 15 349 0.0 3.2 0.00 0.03 0.00 94 1017.9
20260906092926 15 349 0.0 6.4 0.00 0.03 0.00 94 1017.8
20260906091929 15 349 0.0 6.4 0.00 0.03 0.00 93 1017.8
20260906090927 15 349 0.0 3.2 0.00 0.03 0.00 93 1017.9
20260906085928 15 13 0.0 0.0 0.00 0.03 0.00 93 1017.8
20260906084927 15 13 0.0 0.0 0.00 0.03 0.00 93 1017.8
20260906083922 15 13 0.0 0.0 0.00 0.03 0.00 93 1017.7
20260906082920 15 13 0.0 0.0 0.00 0.03 0.00 93 1017.5
20260906081920 15 13 0.0 6.4 0.00 0.03 0.00 93 1017.4
20260906080919 15 328 0.0 6.4 0.00 0.03 0.00 93 1017.6
20260906075919 15 328 0.0 6.4 0.00 0.03 0.00 93 1017.6
20260906074920 16 313 0.0 6.4 0.00 0.03 0.00 93 1017.6
20260906073919 16 11 0.0 0.0 0.00 0.03 0.00 93 1017.6
20260906072920 16 13 0.0 0.0 0.00 0.03 0.00 93 1017.4
20260906071931 16 15 0.0 3.2 0.00 0.03 0.00 93 1017.4
20260906070920 16 15 0.0 6.4 0.00 0.03 0.00 93 1017.2
20260906065917 16 355 0.0 6.4 0.00 0.03 0.00 92 1017.2
20260906064913 15 0 0.0 0.0 0.00 0.03 0.00 92 1017.2
20260906063912 15 13 0.0 6.4 0.00 0.03 0.00 92 1017.2
20260906062914 15 13 0.0 6.4 0.00 0.03 0.00 92 1017.1
20260906061915 15 329 0.0 0.0 0.00 0.03 0.00 91 1017.0
20260906060915 15 329 3.2 6.4 0.00 0.03 0.00 91 1017.2
20260906055914 15 347 0.0 6.4 0.00 0.03 0.00 91 1017.2
20260906054915 15 333 3.2 8.0 0.00 0.03 0.00 91 1017.3
20260906053908 15 5 0.0 6.4 0.00 0.03 0.00 90 1017.2
20260906052910 15 5 0.0 6.4 0.00 0.03 0.00 90 1017.1
20260906051908 15 5 0.0 6.4 0.00 0.03 0.00 90 1017.2
20260906050908 15 5 0.0 0.0 0.00 0.03 0.00 90 1017.2
20260906045909 15 5 0.0 0.0 0.00 0.03 0.00 89 1017.2
20260906044906 15 5 0.0 3.2 0.00 0.03 0.00 89 1017.1
20260906043907 15 5 0.0 3.2 0.00 0.03 0.00 89 1017.2
20260906042907 15 5 0.0 0.0 0.00 0.03 0.00 89 1017.2
20260906041907 15 5 0.0 0.0 0.00 0.03 0.00 89 1017.1
20260906040903 15 5 0.0 0.0 0.00 0.03 0.00 88 1017.0
20260906035904 15 5 0.0 0.0 0.00 0.03 0.03 87 1016.9
20260906034905 15 5 0.0 3.2 0.00 0.03 0.03 87 1016.8
20260906033904 16 5 0.0 3.2 0.00 0.03 0.03 86 1016.9
20260906032859 16 5 0.0 0.0 0.00 0.03 0.03 86 1016.9
20260906031901 16 5 0.0 0.0 0.00 0.03 0.03 86 1016.9
20260906030902 16 5 0.0 0.0 0.00 0.03 0.03 85 1016.9
20260906025902 16 5 0.0 0.0 0.00 0.03 0.03 85 1016.8
20260906024903 16 5 0.0 0.0 0.00 0.03 0.03 86 1016.9
20260906023857 16 5 0.0 0.0 0.00 0.03 0.03 85 1017.0
20260906022856 16 5 0.0 0.0 0.00 0.03 0.03 86 1017.1
20260906021854 16 5 0.0 0.0 0.00 0.03 0.03 86 1016.9
20260906020853 17 5 0.0 0.0 0.00 0.03 0.03 84 1017.0
20260906015857 17 5 0.0 0.0 0.00 0.03 0.03 84 1016.9
20260906014855 17 5 0.0 0.0 0.00 0.03 0.03 83 1016.9
20260906013854 18 5 0.0 0.0 0.00 0.03 0.03 82 1016.8
20260906012853 18 5 0.0 3.2 0.00 0.03 0.03 83 1016.7
20260906011901 18 5 0.0 0.0 0.00 0.03 0.03 82 1016.6
20260906010852 18 5 0.0 0.0 0.00 0.03 0.03 81 1016.3
20260906005856 18 5 0.0 0.0 0.00 0.03 0.03 80 1016.3
20260906004851 19 5 0.0 0.0 0.00 0.03 0.03 79 1016.2
20260906003853 19 5 0.0 6.4 0.00 0.03 0.03 78 1016.2
20260906002851 19 348 0.0 6.4 0.00 0.03 0.03 76 1016.2
20260906001850 20 17 3.2 8.0 0.00 0.03 0.03 75 1016.2
20260906000850 20 37 3.2 6.4 0.00 0.03 0.03 75 1016.1
20260905235851 20 9 3.2 6.4 0.00 0.03 0.03 74 1016.0
20260905234850 20 355 0.0 6.4 0.00 0.03 0.03 73 1016.0
20260905233849 21 9 3.2 8.0 0.00 0.03 0.03 72 1015.9
20260905232848 21 27 3.2 6.4 0.00 0.03 0.03 71 1015.9
20260905231851 21 355 6.4 11.3 0.00 0.03 0.03 71 1016.0
20260905230851 22 37 6.4 11.3 0.00 0.03 0.03 71 1016.0
20260905225852 22 32 3.2 11.3 0.00 0.03 0.03 71 1015.8
20260905224851 22 33 3.2 8.0 0.00 0.03 0.03 71 1015.8
20260905223849 22 355 3.2 11.3 0.00 0.03 0.03 69 1015.6
20260905222851 23 343 3.2 8.0 0.00 0.03 0.03 68 1015.5
20260905221853 23 40 3.2 11.3 0.00 0.03 0.03 66 1015.4
20260905220849 23 355 3.2 8.0 0.00 0.03 0.03 65 1015.4
20260905215851 23 5 3.2 8.0 0.00 0.03 0.03 64 1015.4
20260905214853 23 40 3.2 8.0 0.00 0.03 0.03 63 1015.2
20260905213853 23 53 6.4 14.5 0.00 0.03 0.03 64 1015.2
20260905212854 23 351 6.4 11.3 0.00 0.03 0.03 64 1015.4
20260905211850 23 0 6.4 11.3 0.00 0.03 0.03 64 1015.4
20260905210854 23 42 6.4 11.3 0.00 0.03 0.03 64 1015.2
20260905205853 23 342 3.2 11.3 0.00 0.03 0.03 65 1015.1
20260905204845 23 355 3.2 11.3 0.00 0.03 0.03 63 1015.1
20260905203845 24 53 3.2 11.3 0.00 0.03 0.03 61 1015.1
20260905202844 24 64 3.2 11.3 0.00 0.03 0.03 61 1015.2
20260905201845 24 5 0.0 8.0 0.00 0.03 0.03 63 1015.4
20260905200846 24 0 3.2 8.0 0.00 0.03 0.03 61 1015.4
20260905195843 24 40 3.2 8.0 0.00 0.03 0.03 60 1015.5
20260905194846 24 57 6.4 8.0 0.00 0.03 0.03 60 1015.6
20260905193845 24 49 3.2 11.3 0.00 0.03 0.03 62 1015.4
20260905192853 24 46 6.4 11.3 0.00 0.03 0.03 60 1015.5
20260905191844 24 46 3.2 11.3 0.00 0.03 0.03 62 1015.7
20260905190839 24 45 3.2 8.0 0.00 0.03 0.03 62 1015.7
20260905185838 24 42 6.4 11.3 0.00 0.03 0.03 63 1015.7
20260905184836 24 13 3.2 8.0 0.00 0.03 0.03 65 1015.7
20260905183836 24 28 6.4 11.3 0.00 0.03 0.03 64 1015.7
20260905182836 24 11 3.2 14.5 0.00 0.03 0.03 66 1015.7
20260905181838 23 5 3.2 11.3 0.00 0.03 0.03 68 1015.7
20260905180837 23 59 3.2 8.0 0.03 0.03 0.03 68 1015.8
20260905175840 23 19 3.2 8.0 0.03 0.03 0.03 68 1015.6
20260905174832 23 55 3.2 8.0 0.03 0.03 0.03 67 1015.7
20260905173832 23 56 3.2 14.5 0.03 0.03 0.03 65 1015.7
20260905172833 23 53 3.2 8.0 0.03 0.03 0.03 69 1015.7
20260905171831 23 45 3.2 8.0 0.03 0.03 0.03 68 1015.7
20260905170831 23 36 3.2 8.0 0.00 0.00 0.00 67 1015.8
20260905165829 23 44 0.0 8.0 0.00 0.00 0.00 68 1015.9
20260905164831 23 51 3.2 11.3 0.00 0.00 0.00 70 1015.9
20260905163831 23 0 3.2 8.0 0.00 0.00 0.00 70 1015.8
20260905162833 23 74 3.2 8.0 0.00 0.00 0.00 70 1015.8
20260905161832 23 42 3.2 8.0 0.00 0.00 0.00 72 1015.9
20260905160826 23 346 3.2 8.0 0.00 0.00 0.00 69 1015.9
20260905155830 22 42 3.2 11.3 0.00 0.00 0.00 71 1015.8
20260905154828 23 45 3.2 8.0 0.00 0.00 0.00 70 1015.8
20260905153827 22 66 3.2 8.0 0.00 0.00 0.00 70 1015.7
20260905152829 22 44 3.2 8.0 0.00 0.00 0.00 71 1015.6
20260905151827 22 41 3.2 11.3 0.00 0.00 0.00 69 1015.5
20260905150828 22 58 3.2 11.3 0.00 0.00 0.00 71 1015.5
20260905145828 22 45 0.0 6.4 0.00 0.00 0.00 73 1015.5
20260905144826 21 53 0.0 6.4 0.00 0.00 0.00 74 1015.4
20260905143830 21 30 0.0 8.0 0.00 0.03 0.00 78 1015.2
20260905142827 20 46 3.2 8.0 0.00 0.05 0.00 80 1015.2
20260905141825 20 48 3.2 8.0 0.00 0.08 0.00 83 1015.2
20260905140824 20 48 3.2 6.4 0.00 0.10 0.00 84 1015.2
20260905135828 19 45 0.0 6.4 0.00 0.13 0.00 86 1015.4
20260905134823 19 40 0.0 6.4 0.00 0.13 0.00 86 1015.2
20260905133823 19 52 3.2 6.4 0.00 0.15 0.00 87 1015.4
20260905132818 19 51 3.2 8.0 0.00 0.15 0.00 88 1015.2
20260905131818 19 64 0.0 8.0 0.00 0.15 0.00 89 1015.5
20260905130816 18 49 0.0 0.0 0.00 0.18 0.00 89 1015.4
20260905125818 18 49 0.0 0.0 0.00 0.18 0.00 90 1015.1
20260905124817 18 51 0.0 6.4 0.00 0.20 0.00 91 1015.2
20260905123818 18 51 0.0 6.4 0.00 0.20 0.00 92 1015.2
20260905122817 18 40 0.0 6.4 0.00 0.20 0.00 92 1015.1
20260905121816 18 49 3.2 6.4 0.00 0.20 0.00 93 1014.9
20260905120820 18 57 0.0 8.0 0.00 0.20 0.00 93 1015.0
20260905115815 18 49 0.0 6.4 0.00 0.20 0.00 93 1014.9
20260905114815 18 49 0.0 8.0 0.00 0.20 0.00 93 1014.9
20260905113813 18 54 0.0 6.4 0.00 0.20 0.00 94 1014.8
20260905112810 18 41 3.2 8.0 0.00 0.20 0.00 93 1014.8
20260905111810 18 42 0.0 6.4 0.00 0.20 0.00 93 1014.8
20260905110811 18 42 0.0 6.4 0.00 0.20 0.00 93 1014.7
20260905105813 18 30 0.0 0.0 0.00 0.20 0.00 93 1014.6
20260905104812 18 30 0.0 0.0 0.00 0.20 0.00 94 1014.7
20260905103812 18 11 0.0 0.0 0.00 0.20 0.00 93 1014.7